Showing default

GONETS M 17, 46486

Orbit data source: Space-Track

GONETS M 17, 46486 is a payload satellite owned by Gonets (CIS) in LEO that was launched on Mon, 28 Sep 2020 UTC via a SOYUZ-2-1B launch vehicle from the Plesetsk Missile And Space Complex (PKMTR). Payload-class satellites include a variety of spacecraft equipped with specific instruments for various scientific and technological missions. These include communications satellites like Starlink; space stations such as the ISS; scientific satellites like the Hubble; Earth observation satellites from companies like Planet Labs, Umbra, and HawkEye 360; GPS; miniature CubeSats for education and research; and military/defense satellites.

Loading next visibility...
Identifier
46486, 2020-068A
Orbit
LEO
Last TLE update
7 hours ago
Origin
Manufacturer
Resehetnev ISS
Mission
Operational Commercial Communications
Bus & Motor
STRELA-3M, Unknown motor
Mass
225 kg wet, 225 kg dry
Launch date (UTC)
2020-09-28 (5 years ago)
Launch vehicle
SOYUZ-2-1B
Launch site
Plesetsk Missile And Space Complex (PKMTR)
Object type
Payload
Rocket body
Debris
Shape & HBR
Cyl + 1 Ant, 7 m
Radar Cross Section
1.798 m², Large (>1 m²)

Expand to show TLE details & history

TLE from 7 hours ago
0 GONETS M 17
1 46486U 20068A   25115.50557502  .00000037  00000-0  19918-3 0  9998
2 46486  82.4965 247.3044 0022709 223.8892 136.0384 12.42892991207452
Epoch: 2025-04-25T12:08Z
Definitive object data (Epoch: 2025-04-25T12:08:01.681Z)
Latitude
-0.00005°
Longitude
-148.4643°
Altitude
1,509.953 km
Speed
7.104 km/s
True Right ascension
16h 29m 13s
True Declination
0° 00' 00"
Sunlit
Object was in full shadow at TLE epoch
Visualization TLE readout
Latitude
-28.15761°
Longitude
35.37935°
Altitude
1,487.429 km
Speed
7.127 km/s
Apparent Right ascension
07h 41m 13s
Apparent Declination
-61° 41' 05"
Sunlit
Object is in daylight
Visualization observer readout
Local Sidereal Time
02:18:33
Azimuth
147.14° SSE
Elevation
-30.389°
Doppler factor
1
Orbital elements
Apogee altitude
1,509.586 km
Perigee altitude
1,473.843 km
Semi-major axis
7,869.852 km
Eccentricity
0.0022709
Inclination
82.4965°
RAAN
247.3044°
Arg. of periapsis
223.8892°
True anomaly
136.21867°
Mean anomaly
136.0384°
Eccentric anomaly
136.12857°
Mean motion
3.1088 °/min
BSTAR
0.00019918
Orbital period
115.8 mins
Loading maneuver chart data...
Loading SW <> Apogee altitude chart data...
Loading historical data...
Loading historical data...
Loading historical data...
Loading historical data...
Loading historical data...
Loading historical data...
Loading historical data...

GONETS M 17 Visibility forecast

Observer location: undefined°, undefined°

Span
Click to sort rows by Start time (UTC) header in descending order
Start Az.
Max El. time (UTC)
Max El. Az.
Max El.
End time (UTC)
End Az.
16 mins2025-04-25 20:28:51.243Z354.97° N2025-04-25 20:36:51.243Z96.691° ESE44.503°2025-04-25 20:44:51.243Z168.948° S
10 mins2025-04-25 22:27:51.243Z316.559° NNW2025-04-25 22:32:51.243Z277.072° WNW19.04°2025-04-25 22:37:51.243Z240.247° WSW
8 mins2025-04-26 07:36:51.243Z105.893° ESE2025-04-26 07:40:51.243Z75.211° E17.053°2025-04-26 07:44:51.243Z45.659° ENE
16 mins2025-04-26 09:28:51.243Z186.489° SSW2025-04-26 09:35:51.243Z211.457° SW44.907°2025-04-26 09:44:51.243Z7.502° NNE
9 mins2025-04-26 11:29:51.243Z264.44° W2025-04-26 11:33:51.243Z294.391° NW17.287°2025-04-26 11:38:51.243Z332.164° NNW
|